Hourly Data Report for July 19, 2021

FISHER BRANCH (AUT)
MANITOBA
Current Station Operator: ECCC - MSC

51°05'00.100" N
97°33'16.200" W
253.00 m
50309J6
71442
WSZ

Download Data

Hourly Data (July 2021)
Hourly Data Report for July 19, 2021
TIME
LST
Temp Definition
°C
Dew Point Definition
°C
Rel Hum Definition
%
Precip. Amount Definition
mm

Wind Dir Definition
10's deg

Wind Spd Definition
km/h
Visibility Definition
km
Stn Press Definition
kPa
Hmdx Definition


Wind Chill Definition


Weather Definition


00:00 21.1 17.6 80 0.0 33 16   98.79 27   LegendNANA
01:00 20.1 17.2 83 0.0 33 13   98.83 26   LegendNANA
02:00 19.5 16.4 83 0.0 35 12   98.82     LegendNANA
03:00 18.4 16.0 86 0.0 35 20   98.88     LegendNANA
04:00 17.8 15.7 88 0.0 33 14   99.02     LegendNANA
05:00 17.4 15.3 88 0.0 34 19   99.00     LegendNANA
06:00 16.7 14.7 88 0.0 34 20   99.03     LegendNANA
07:00 16.8 14.5 86 0.0 35 16   99.06     LegendNANA
08:00 16.9 14.4 85 0.0 35 18   99.07     LegendNANA
09:00 17.0 14.2 84 0.0 36 13   99.12     LegendNANA
10:00 17.4 14.2 81 0.0 36 13   99.18     LegendNANA
11:00 18.9 14.4 75 0.0 1 12   99.21     LegendNANA
12:00 20.5 14.8 70 0.0 1 12   99.21     LegendNANA
13:00 21.4 14.1 63 0.0 3 12   99.16 25   LegendNANA
14:00 22.3 14.2 60 0.0 1 11   99.18 26   LegendNANA
15:00 23.6 14.2 56 0.0 2 7   99.21 27   LegendNANA
16:00 24.2 14.2 54 0.0 6 7   99.18 28   LegendNANA
17:00 24.7 14.1 52 0.0 2 7   99.19 28   LegendNANA
18:00 24.2 14.0 53 0.0 4 9   99.16 28   LegendNANA
19:00 22.8 14.2 59 0.0 3 11   99.08 26   LegendNANA
20:00 20.5 14.6 69 0.0 5 12   99.10     LegendNANA
21:00 18.4 14.3 77 0.0 6 12   99.19     LegendNANA
22:00 16.1 13.2 83 0.0 8 4   99.28     LegendNANA
23:00 15.5 13.3 87 0.0 8 3   99.29     LegendNANA

Notes on Data Quality.

Legend

  • E = Estimated
  • M = Missing
  • NA = Not Available*
  • [empty] = Indicates an unobserved value
Date modified: